SCP
0 0 0 0 0 0 0 0 0 0 0 0 0 0 0 0 0 0 1 1 2 3 3 3 3 2 3 5 7 7 6 6 6 7 6 5 5 4 4 3 2 2 2 2
0 0 0 0 0 0 0 0 0 0 0 0 0 0 0 0 0 0 1 1 1 2 3 2 2 2 3 4 7 7 7 7 7 8 7 6 5 4 4 3 2 2 2 2
0 0 0 0 0 0 0 0 0 0 0 0 0 0 0 0 0 1 1 1 1 2 2 2 2 2 2 3 6 8 8 8 9 9 8 6 6 4 3 2 1 1 1 1
0 0 0 0 0 0 0 0 0 0 0 0 0 0 0 0 1 1 2 1 1 1 2 2 2 2 2 3 4 6 8 8 9 8 7 7 6 4 2 1 0 0 0 0
0 0 0 0 0 0 0 0 0 0 0 0 0 0 0 0 1 2 2 2 2 2 2 2 2 2 2 3 4 5 6 7 7 7 6 5 4 2 1 0 0 0 0 0
0 0 0 0 0 0 0 0 0 0 0 0 0 0 0 1 2 3 3 2 2 2 2 3 3 3 3 3 4 5 5 6 5 4 4 3 2 1 0 0 0 0 0 0
0 0 0 0 0 0 0 0 0 0 0 0 0 0 1 1 2 3 3 2 3 3 3 3 3 3 4 4 4 4 4 4 3 2 2 1 1 0 0 0 0 0 0 0
0 0 0 0 0 0 0 0 0 0 0 0 0 0 1 1 2 3 3 3 4 5 5 4 4 3 3 3 3 2 2 2 2 1 1 0 0 0 0 0 0 0 0 0
0 0 0 0 0 0 0 0 0 0 0 0 0 0 1 1 2 2 3 3 4 4 4 4 3 3 3 2 1 1 1 1 1 0 0 0 0 0 0 0 0 0 0 0
0 0 0 0 0 0 0 0 0 0 0 0 0 0 1 1 1 2 3 3 3 3 3 2 2 2 1 1 0 0 0 0 0 0 0 0 0 0 0 0 0 0 0 0
0 0 0 0 0 0 0 0 0 0 0 0 0 0 0 1 1 2 2 3 3 3 2 2 1 1 1 0 0 0 0 0 0 0 0 0 0 0 0 0 0 0 0 0
0 0 0 0 0 0 0 0 0 0 0 0 0 0 1 1 2 2 2 2 3 3 2 1 1 0 0 0 0 0 0 0 0 0 0 0 0 0 0 0 0 0 0 0
0 0 0 0 0 0 0 0 0 0 0 0 0 0 1 2 2 2 3 3 3 2 1 1 0 0 0 0 0 0 0 0 0 0 0 0 0 0 0 0 0 0 0 0
0 0 0 0 0 0 0 0 0 0 0 0 0 1 2 2 2 3 3 3 2 1 1 0 0 0 0 0 0 0 0 0 0 0 0 0 0 0 0 0 0 0 0 0
0 0 0 0 0 0 0 0 0 0 0 0 1 1 2 2 3 3 3 3 2 1 0 0 0 0 0 0 0 0 0 0 0 0 0 0 0 0 0 0 0 0 0 0
0 0 0 0 0 0 0 0 0 0 0 1 1 1 2 2 2 2 3 2 1 0 0 0 0 0 0 0 0 0 0 0 0 0 0 0 0 0 0 0 0 0 0 0
0 0 0 0 0 0 0 0 0 1 1 1 1 1 1 1 1 1 1 1 1 0 0 0 0 0 0 0 0 0 0 0 0 0 0 0 0 0 0 0 0 0 0 0
0 0 0 0 0 0 0 0 0 0 0 0 0 0 0 0 0 0 0 0 0 0 0 0 0 0 0 0 0 0 0 0 0 0 0 0 0 0 0 0 0 0 0 0
0 0 0 0 0 0 0 0 0 0 0 0 0 0 0 0 0 0 0 0 0 0 0 0 0 0 0 0 0 0 0 0 0 0 0 0 0 0 0 0 0 0 0 0
0 0 0 0 0 0 0 0 0 0 0 0 0 0 0 0 0 0 0 0 0 0 0 0 0 0 0 0 0 0 0 0 0 0 0 0 0 0 0 0 0 0 0 0
0 0 0 0 0 0 0 0 0 0 0 0 0 0 0 0 0 0 0 0 0 0 0 0 0 0 0 0 0 0 0 0 0 0 0 0 0 0 0 0 0 0 0 0
0 0 0 0 0 0 0 0 0 0 0 0 0 0 0 0 0 0 0 0 0 0 0 0 0 0 0 0 0 0 0 0 0 0 0 0 0 0 0 0 0 0 0 0
0 0 0 0 0 0 0 0 0 0 0 0 0 0 0 0 0 0 0 0 0 0 0 0 0 0 0 0 0 0 0 0 0 0 0 0 0 0 0 0 0 0 0 0
0 0 0 0 0 0 0 0 0 0 0 0 0 0 0 0 0 0 0 0 0 0 0 0 0 0 0 0 0 0 0 0 0 0 0 0 0 0 0 0 0 0 0 0
0 0 0 0 0 0 0 0 0 0 0 0 0 0 0 0 0 0 0 0 0 0 0 0 0 0 0 0 0 0 0 0 0 0 0 0 0 0 0 0 0 0 0 0
0 0 0 0 0 0 0 0 0 0 0 0 0 0 0 0 0 0 0 0 0 0 0 0 0 0 0 0 0 0 0 0 0 0 0 0 0 0 0 0 0 0 0 0
Wind_Speed
5 5 5 8 9 6 3 2 3 5 4 2 5 7 10 7 4 8 8 10 13 18 18 12 11 11 10 11 12 13 13 11 9 7 6 5 3 2 2 1 2 3 4 6
4 4 9 7 5 4 3 3 4 7 3 1 4 8 9 6 6 7 9 11 13 13 10 9 10 11 13 13 12 12 13 11 10 7 5 4 4 3 2 2 3 3 4 5
8 6 6 6 5 5 4 5 5 6 6 4 3 8 8 6 4 5 6 7 8 9 10 8 8 9 8 9 10 11 11 9 9 9 7 6 4 3 3 2 2 3 3 5
6 6 4 5 6 7 5 7 6 3 1 4 2 4 10 6 7 5 6 5 6 5 5 5 5 5 6 7 6 7 8 9 9 10 9 9 5 3 1 1 2 4 5 6
7 6 7 7 8 9 7 4 4 3 4 2 2 2 10 6 6 7 7 7 6 4 2 0 1 2 3 4 7 9 11 10 10 9 9 8 6 4 4 4 5 4 4 5
5 4 7 9 7 7 4 5 5 5 4 2 5 5 7 4 5 8 7 8 7 6 6 7 8 9 9 10 11 11 12 11 10 9 8 8 8 7 8 7 6 4 4 4
2 3 3 4 2 2 5 5 4 3 3 6 3 3 6 4 5 5 6 7 9 10 10 11 11 11 11 12 11 11 12 11 9 9 7 7 8 8 8 8 6 6 4 3
5 6 5 6 8 7 6 11 8 6 6 5 1 4 3 3 6 7 8 9 11 12 12 12 12 11 11 11 11 11 11 10 9 8 6 6 7 5 6 7 6 6 4 4
7 7 6 6 7 11 7 7 8 7 3 1 3 2 2 4 8 9 9 11 12 12 13 13 12 12 12 12 11 11 11 10 9 9 8 8 8 7 7 7 6 5 5 5
8 4 4 2 4 2 5 8 6 7 7 4 3 2 2 3 5 6 8 9 10 11 12 13 12 12 12 12 11 12 11 11 10 9 8 8 8 8 8 7 7 7 6 6
5 4 4 3 2 2 4 4 5 4 5 8 4 4 1 1 1 4 7 8 10 11 11 11 11 11 11 11 11 11 10 11 10 9 9 9 8 8 8 8 8 7 7 7
2 5 2 3 2 0 4 5 7 5 4 4 5 3 3 1 3 6 8 9 9 10 10 10 10 10 10 11 10 10 10 10 9 9 10 9 9 9 9 9 8 8 8 7
2 5 3 3 3 6 4 2 4 5 5 3 4 2 2 5 7 8 8 9 8 9 9 9 10 10 10 9 9 9 9 9 9 9 10 10 10 9 9 8 8 8 8 7
5 5 4 5 3 1 3 4 2 5 4 3 3 5 2 5 6 7 8 8 8 8 8 8 8 8 8 8 9 9 9 8 9 10 11 10 9 8 8 8 8 7 7 6
5 5 4 4 4 4 5 7 5 3 4 6 7 6 4 3 5 6 7 8 8 8 8 8 7 7 7 8 8 8 8 8 8 10 10 9 8 8 8 8 7 6 6 6
5 4 3 4 6 5 7 10 7 6 4 7 11 6 4 6 7 7 7 7 7 7 7 7 7 7 7 7 7 7 8 7 8 9 9 8 8 8 7 7 6 6 6 5
4 3 3 1 3 4 5 6 4 4 4 2 3 5 7 7 8 7 6 7 7 7 7 7 6 6 6 6 6 7 7 7 8 8 8 8 7 7 6 6 6 6 5 5
3 4 3 1 2 1 1 3 6 7 7 6 8 8 7 8 7 7 7 7 7 7 6 6 6 6 6 6 7 7 7 7 8 8 7 6 6 6 5 6 6 5 4 4
2 5 4 3 3 1 2 1 1 3 3 3 5 7 7 7 5 5 6 7 7 6 6 6 6 6 6 7 7 7 7 7 7 6 6 5 5 5 5 6 5 3 3 4
5 5 5 4 4 5 3 1 2 4 1 1 3 5 5 4 1 2 5 7 8 7 6 6 6 7 7 6 6 7 7 6 6 5 4 5 5 5 5 4 4 3 3 3
5 5 4 3 2 2 1 4 1 3 3 2 3 3 4 2 2 6 7 8 8 8 7 7 7 7 6 5 6 6 5 4 3 4 5 5 4 4 4 4 3 3 3 4
1 1 1 2 2 4 4 3 2 2 1 3 2 2 4 6 9 9 9 9 8 8 7 7 6 6 5 5 5 5 3 2 3 4 4 4 3 3 3 4 3 3 3 4
1 2 3 3 3 0 3 2 2 1 2 2 2 4 7 9 8 9 9 8 7 7 6 5 5 5 4 4 3 3 1 1 3 3 3 3 3 3 2 2 2 2 2 2
1 2 3 1 1 1 2 2 3 3 2 2 3 5 7 9 10 10 9 7 6 6 5 4 5 4 3 3 2 1 1 1 3 3 2 2 2 2 2 1 1 0 1 1
2 1 2 1 1 2 1 2 2 4 5 6 6 6 8 11 11 10 8 7 5 4 3 3 4 3 3 3 3 3 2 3 3 2 1 1 1 0 1 1 1 2 2 3
3 4 4 4 5 5 3 2 3 4 5 6 7 8 8 9 10 9 7 5 4 4 3 3 3 3 3 3 3 3 2 3 3 1 0 0 1 1 1 2 3 3 3 4
Wind_Direction
138 115 181 196 187 188 192 205 269 271 280 309 292 288 289 291 267 254 245 232 225 226 228 219 212 207 200 197 194 194 194 190 173 169 168 156 141 108 93 86 102 127 136 138
88 215 210 188 177 178 199 248 279 293 324 271 294 291 284 274 250 245 246 243 237 238 233 219 210 205 202 199 195 193 193 185 172 166 146 115 109 104 98 78 83 89 118 125
168 219 187 159 163 177 198 205 234 262 334 347 300 307 304 297 301 294 278 263 254 237 231 226 216 214 207 199 195 193 189 167 149 135 114 105 94 80 75 70 71 77 100 109
200 226 159 165 187 169 230 221 212 237 1 300 10 302 294 302 320 318 316 311 288 269 247 228 216 206 199 197 179 164 141 130 129 126 129 130 125 115 99 107 102 104 99 103
215 192 178 196 204 174 211 207 194 209 188 261 280 193 281 326 324 327 344 350 336 323 307 280 147 146 124 111 107 107 109 111 114 117 123 119 111 108 120 113 117 108 94 96
210 200 183 201 209 186 176 75 53 51 90 233 233 171 272 305 311 322 348 3 5 18 49 65 73 80 78 81 90 98 101 99 99 102 105 113 121 136 140 140 140 122 106 98
249 260 222 174 150 143 128 103 27 2 36 241 241 172 247 309 345 352 9 32 42 52 61 66 70 75 79 84 90 96 102 102 100 99 102 115 133 151 151 146 141 132 121 109
192 262 232 189 181 187 177 149 163 190 206 254 270 208 253 22 37 48 59 61 61 61 63 66 68 72 75 78 82 90 95 98 96 96 95 101 117 128 128 127 131 129 123 119
180 239 256 216 190 163 156 188 175 141 157 191 270 268 322 39 46 52 62 64 62 62 63 63 63 63 65 67 67 74 83 83 82 84 87 87 93 102 109 110 111 110 111 115
162 221 278 252 103 110 151 148 110 132 151 207 263 250 268 351 22 51 64 67 65 64 62 60 59 60 60 62 64 66 71 76 74 75 78 83 82 88 94 97 99 98 97 96
150 179 299 23 104 159 109 115 119 129 158 161 208 249 307 270 22 87 77 69 66 65 64 63 62 62 64 65 66 70 73 77 77 78 79 80 80 82 86 86 86 88 87 89
129 139 223 265 293 29 133 153 143 150 203 178 167 217 352 66 86 94 87 77 69 67 65 63 63 63 62 63 65 67 70 74 78 81 82 80 80 81 81 80 80 83 82 82
94 106 101 8 352 11 50 68 125 118 109 136 150 182 31 78 83 80 83 78 70 66 62 58 56 56 57 60 64 67 70 76 80 83 83 80 78 80 80 79 78 80 84 85
96 71 126 172 211 250 37 12 102 113 121 144 157 138 104 82 87 79 76 73 70 66 65 62 59 57 58 62 65 69 67 72 81 83 83 80 78 80 81 80 78 79 84 87
68 74 54 43 29 73 59 22 22 70 144 151 153 141 130 91 89 84 83 79 72 67 65 65 67 66 66 67 67 68 68 69 78 83 83 83 82 81 80 78 76 74 76 82
38 82 62 35 26 54 48 19 23 39 41 117 127 120 93 87 79 72 72 77 75 67 64 64 66 69 72 75 78 77 76 75 81 84 85 84 83 81 80 78 75 71 67 66
24 67 75 353 350 41 12 352 22 48 26 115 137 126 117 88 68 55 55 67 66 63 65 63 64 70 74 75 81 82 79 78 79 80 82 81 82 80 74 77 71 65 60 59
120 91 100 99 60 203 246 46 83 81 48 62 101 107 101 98 82 54 49 66 66 65 68 67 71 76 73 75 76 75 74 75 77 77 77 81 83 80 73 69 64 56 52 51
119 128 112 109 113 125 222 269 7 101 61 40 108 112 112 114 97 64 54 67 72 71 74 76 80 84 79 75 77 78 72 72 75 76 77 78 82 79 69 63 55 46 51 45
45 74 104 118 146 211 211 32 18 107 147 189 131 138 139 138 133 118 94 85 83 79 79 83 83 81 77 71 76 78 73 71 70 74 77 73 76 79 74 67 58 47 55 46
13 30 77 122 159 252 5 321 18 165 226 146 129 145 155 157 117 116 105 92 89 86 83 82 80 75 70 69 77 76 70 62 64 78 76 71 74 83 83 72 60 59 56 43
11 62 106 124 164 244 343 11 130 166 60 81 95 113 120 113 109 110 106 101 96 90 82 80 79 70 56 60 74 73 60 52 76 83 78 70 66 77 90 86 69 56 51 40
164 191 184 180 201 310 16 59 41 82 91 82 105 121 128 127 123 116 109 103 96 92 84 77 78 66 44 40 68 74 19 91 100 93 86 79 73 68 80 92 82 53 40 31
305 131 123 144 216 116 67 54 40 53 77 88 121 132 135 129 126 119 114 107 97 88 80 76 74 63 33 18 38 31 315 130 122 114 103 90 81 65 53 59 76 66 346 346
253 139 124 194 178 114 70 72 72 72 81 88 94 109 125 126 125 121 117 111 102 90 78 76 79 69 37 26 31 22 54 107 109 107 96 74 66 22 344 331 269 257 250 243
217 178 177 222 204 174 174 144 116 100 98 108 112 107 112 120 121 118 114 110 107 99 89 84 77 70 44 35 29 27 59 110 122 121 107 310 303 312 315 322 323 303 289 305